Weather History for KBWI - August, 2013

Change the Weather History Date:

Friday, August 23, 2013

  Actual Average Record
Temperature  
Mean Temperature 70 °F 74 °F  
Max Temperature 80 °F 85 °F 98 °F (1968)
Min Temperature 60 °F 65 °F 50 °F (1952)
Degree Days  
Heating Degree Days 0 0  
Month to date heating degree days 0 0  
Since 1 June heating degree days 0 15  
Since 1 July heating degree days 0 0  
Cooling Degree Days 5 10  
Month to date cooling degree days 199 246  
Year to date cooling degree days 1052 940  
Since 1 June cooling degree days 921 856  
Growing Degree Days 20 (Base 50)    
Moisture  
Dew Point 62 °F    
Average Humidity 76    
Maximum Humidity 97    
Minimum Humidity 54    
Precipitation  
Precipitation 0.02 in 0.11 in 7.62 in (1933)
Month to date precipitation 1.12 2.49  
Year to date precipitation 25.56 27.05  
Snow  
Snow 0.00 in 0.00 in - ()
Month to date snowfall 0.0 0.0  
Since 1 July snowfall 0.0 0.0  
Snow Depth 0.00 in    
Sea Level Pressure  
Sea Level Pressure 30.01 in    
Wind  
Wind Speed 4 mph (NNW)    
Max Wind Speed 14 mph    
Max Gust Speed 20 mph    
Visibility 10 miles    
Events Rain    
T = Trace of Precipitation, MM = Missing Value Source: NWS Daily Summary

Daily Weather History Graph

Daily Weather History Graph

Search for Another Location

Airport or City:

Trip Planner

Search our weather history database for the weather conditions in past years. The results will help you decide how hot, cold, wet, or windy it might be!

Date:

Astronomy

Aug. 23, 2013 Rise Set
Actual Time 6:27 AM EDT 7:50 PM EDT
Civil Twilight 5:59 AM EDT 8:18 PM EDT
Nautical Twilight 5:25 AM EDT 8:51 PM EDT
Astronomical Twilight 4:50 AM EDT 9:27 PM EDT
Moon 9:09 PM EDT (8/23) 9:18 AM EDT (8/23)
Length of Visible Light 14h 19m
Length of Day
13h 23m
Waning Gibbous, 91% of the Moon is Illuminated
Aug 23
Waning Gibbous
Aug 28
Last Quarter
Sep 5
New
Sep 12
First Quarter
Sep 19
Full

Hourly Weather History & Observations

Time (EDT) Temp. Dew Point Humidity Pressure Visibility Wind Dir Wind Speed Gust Speed Precip Events Conditions
12:54 AM 73.9 °F 62.1 °F 66% 29.95 in 10.0 mi WNW 5.8 mph - N/A   Scattered Clouds
1:54 AM 73.0 °F 62.1 °F 68% 29.95 in 10.0 mi WNW 4.6 mph - N/A   Scattered Clouds
2:54 AM 71.1 °F 62.1 °F 73% 29.94 in 10.0 mi WNW 3.5 mph - N/A   Scattered Clouds
3:54 AM 71.1 °F 63.0 °F 75% 29.94 in 10.0 mi Calm Calm - N/A   Scattered Clouds
4:54 AM 69.1 °F 62.1 °F 78% 29.94 in 10.0 mi WNW 3.5 mph - N/A   Scattered Clouds
5:54 AM 70.0 °F 63.0 °F 78% 29.94 in 10.0 mi NW 3.5 mph - N/A   Mostly Cloudy
6:54 AM 72.0 °F 64.0 °F 76% 29.96 in 8.0 mi Calm Calm - N/A   Mostly Cloudy
7:54 AM 73.9 °F 64.9 °F 73% 29.98 in 10.0 mi Calm Calm - N/A   Overcast
8:54 AM 77.0 °F 63.0 °F 62% 29.99 in 10.0 mi NE 10.4 mph 17.3 mph N/A   Overcast
9:54 AM 78.1 °F 63.0 °F 60% 29.99 in 10.0 mi NE 9.2 mph - N/A   Overcast
10:54 AM 78.1 °F 61.0 °F 56% 30.02 in 10.0 mi NNE 9.2 mph - N/A   Overcast
11:54 AM 78.1 °F 62.1 °F 58% 30.04 in 10.0 mi NNW 4.6 mph - N/A   Overcast
12:54 PM 78.1 °F 64.9 °F 64% 30.04 in 10.0 mi NW 5.8 mph - 0.00 in Rain Light Rain
1:54 PM 79.0 °F 61.0 °F 54% 30.03 in 10.0 mi Variable 4.6 mph - 0.00 in   Overcast
2:54 PM 75.9 °F 62.1 °F 62% 30.03 in 10.0 mi Variable 6.9 mph - 0.00 in Rain Light Rain
3:54 PM 75.9 °F 59.0 °F 56% 30.03 in 10.0 mi North 6.9 mph - 0.00 in   Overcast
4:54 PM 73.0 °F 60.1 °F 64% 30.03 in 10.0 mi North 8.1 mph - 0.00 in Rain Light Rain
5:54 PM 70.0 °F 57.9 °F 65% 30.04 in 10.0 mi North 4.6 mph - 0.01 in Rain Light Rain
6:54 PM 70.0 °F 59.0 °F 68% 30.04 in 10.0 mi NNW 3.5 mph - 0.01 in   Mostly Cloudy
7:54 PM 66.9 °F 62.1 °F 84% 30.05 in 10.0 mi Calm Calm - N/A   Mostly Cloudy
8:54 PM 66.0 °F 62.1 °F 87% 30.07 in 10.0 mi WNW 3.5 mph - N/A   Scattered Clouds
9:54 PM 63.0 °F 61.0 °F 93% 30.09 in 10.0 mi WNW 3.5 mph - N/A   Scattered Clouds
10:54 PM 62.1 °F 60.1 °F 93% 30.10 in 10.0 mi Calm Calm - N/A   Partly Cloudy
11:54 PM 60.1 °F 59.0 °F 96% 30.11 in 9.0 mi Calm Calm - N/A   Clear